Regional Weather Roundup
Issued by NWS

Home | Current Version | Previous Version | Text Only | Print | Product List | Glossary Off
Versions: 1 2 3 4 5 6 7 8 9 10 11 12 13 14 15 16 17 18 19 20 21 22 23 24 25 26 27 28 29 30 31 32 33 34 35 36 37 38 39 40 41 42 43 44 45 46 47 48 49 50

000
ASUS43 KMKX 230220
RWRWI

WISCONSIN REGIONAL WEATHER ROUNDUP
NATIONAL WEATHER SERVICE MILWAUKEE/SULLIVAN WI
800 PM CST MON JAN 22 2018

NOTE: "FAIR" INDICATES FEW OR NO CLOUDS BELOW 12,000 FEET WITH NO
SIGNIFICANT WEATHER AND/OR OBSTRUCTIONS TO VISIBILITY.

WIZ001-002-006>008-014>016-023>028-230300-
NORTHWEST WISCONSIN

CITY           SKY/WX    TMP DP  RH WIND       PRES   REMARKS
SUPERIOR ARPT  CLOUDY    26  19  74 N13G22    29.88F WCI  15
ASHLAND        LGT SNOW  24  22  91 NE22G28   29.84F VSB 3/4 WCI   9
HAYWARD        LGT SNOW  24  19  81 N22G32    29.75S WCI   9
SIREN          CLOUDY    26  23  88 NE17G25   29.79R WCI  13
CUMBERLAND     CLOUDY    25  21  86 N24       29.70R WCI   9
RICE LAKE        N/A     26  24  93 N22G29    29.71R WCI  11
CHETEK         LGT SNOW  28  24  87 N9G18     29.69S WCI  19
LADYSMITH      CLOUDY    27  24  87 N16       29.68R WCI  15
EAU CLAIRE     LGT SNOW  28  26  92 N12G23    29.65R FOG     WCI  18
MENOMONIE      LGT SNOW  29  27  92 N13       29.68R WCI  18
NEW RICHMOND   CLOUDY    26  24  91 N17G23    29.73R WCI  13
OSCEOLA        LGT SNOW  27  27  99 N18G24    29.77S WCI  14
$$

WIZ003>005-009-010-017-018-230300-
NORTH CENTRAL WISCONSIN

CITY           SKY/WX    TMP DP  RH WIND       PRES   REMARKS
MANITOWISH WTR CLOUDY    22  22 100 N13G22    29.67F WCI  10
ARBOR VITAE    LGT SNOW  24  22  89 N14G23    29.64F WCI  12
WOODRUFF       LGT SNOW  24  22  89 N14G23    29.64F WCI  12
RHINELANDER    LGT SNOW  25  23  92 N13G25    29.59F VSB 1   WCI  14
EAGLE RIVER    CLOUDY    24  23  96 N14G29    29.62F WCI  11
LAND O LAKES   LGT SNOW  24  21  90 N17G26    29.67F VSB 3/4 WCI  10
PHILLIPS         N/A     24  22  94 N17G32    29.63S WCI  10
TOMAHAWK       LGT SNOW  25  22  89 NE6G21    29.60R WCI  18
MEDFORD        LGT SNOW  27  25  95 NE9       29.61R WCI  17
MERRILL        LGT SNOW  28  26  91 NE8       29.62R WCI  20
$$

WIZ029-030-035-036-043>047-230300-
CENTRAL WISCONSIN

CITY           SKY/WX    TMP DP  RH WIND       PRES   REMARKS
WAUSAU         LGT SNOW  29  27  92 N7        29.57R FOG     WCI  22
MOSINEE        LGT SNOW  28  28 100 N12       29.58R WCI  18
MARSHFIELD     CLOUDY    30  28  92 NE13      29.56S WCI  20
STEVENS POINT  CLOUDY    29  28  96 NE13G20   29.57S WCI  18
WAUPACA        CLOUDY    32  28  86 NE8G18    29.57R WCI  25
WAUTOMA        CLOUDY    30  28  93 NE18      29.53F WCI  18
WISC RAPIDS    NOT AVBL
CAMP DOUGLAS   CLOUDY    32  30  93 NE12      29.56R WCI  23
$$

WIZ011>013-019>022-031-037>040-048>050-230300-
NORTHEAST WISCONSIN

CITY           SKY/WX    TMP DP  RH WIND       PRES   REMARKS
ANTIGO         LGT SNOW  27  26  95 NE12      29.59R WCI  17
SHAWANO        CLOUDY    32  28  86 NE16G22   29.57S WCI  21
OCONTO         CLOUDY    29  28  93 N8        29.57F WCI  21
STURGEON BAY   CLOUDY    31  30  96 NE18      29.55F FOG     WCI  19
GREEN BAY      CLOUDY    31  29  92 NE20      29.54F WCI  19
MANITOWOC      MIX PCPN  34  33  96 N13G21    29.51F FOG     WCI  25
APPLETON       CLOUDY    30  30 100 NE18G29   29.53R WCI  18
CLINTONVILLE   CLOUDY    30  28  93 NE15G23   29.56S WCI  19
OSHKOSH        CLOUDY    31  30  96 NE20      29.52S WCI  19
$$

WIZ032>034-041-042-053>061-230300-
SOUTHWEST WISCONSIN

CITY           SKY/WX    TMP DP  RH WIND       PRES   REMARKS
LA CROSSE      CLOUDY    35  32  88 N10       29.58R WCI  27
SPARTA         CLOUDY    32  31  94 NE9       29.58R WCI  24
VIROQUA        CLOUDY    32  32 100 NE12      29.53R WCI  23
BOSCOBEL       CLOUDY    36  32  85 E6        29.54R WCI  31
PRAIRIE DU CHI CLOUDY    35  32  88 NE5       29.53R WCI  31
PLATTEVILLE    CLOUDY    36  36 100 NE10      29.50S WCI  28
$$

WIZ056-057-062-063-064-067-068-230300-
SOUTH CENTRAL WISCONSIN

CITY           SKY/WX    TMP DP  RH WIND       PRES   REMARKS
REEDSBURG      CLOUDY    32  32 100 NE13G18   29.50F WCI  22
BARABOO/DELLS  CLOUDY    32  31  96 NE15G22   29.49F WCI  21
LONE ROCK      CLOUDY    34  32  92 NE10      29.52R WCI  26
MINERAL POINT  CLOUDY    36  36 100 NE3       29.51R
MADISON        CLOUDY    33  32  96 N15       29.48F WCI  23
MIDDLETON      CLOUDY    34  34  99 N13G18    29.48F WCI  25
WATERTOWN      MIX PCPN  33  33 100 N21G30    29.43F WCI  21
MONROE         RAIN      34  34 100 N7        29.49F WCI  28
JANESVILLE     RAIN      37  37 100 N7        29.46F WCI  32
$$

WIZ051-052-058>065-066-070>072-230300-
SOUTHEAST WISCONSIN

CITY           SKY/WX    TMP DP  RH WIND       PRES   REMARKS
MILWAUKEE      HAIL      37  37 100 SW13G21   29.49R FOG     WCI  29
WAUKESHA       LGT RAIN  34  34 100 NE9       29.47R FOG     WCI  26
MILWAUKEE/TIMM TSTM      37  36  93 NE7       29.46S FOG     WCI  32
RACINE         LGT RAIN  36  36 100 N7        29.47R FOG     WCI  30
BURLINGTON     MIX PCPN  38  37  97 NW3       29.47R
KENOSHA        CLOUDY    44  42  93 S8        29.43F
FOND DU LAC    FRZ RAIN  32  29  88 NE20G28   29.50F FOG     WCI  20
SHEBOYGAN      LGT RAIN  34  34 100 N7        29.49S FOG     WCI  28
WEST BEND      LGT RAIN  34  34 100 NE12      29.47F WCI  25
JUNEAU         MIX PCPN  32  31  98 N17G23    29.48F WCI  20
$$

LSZ147-162-230300-
LAKE SUPERIOR

STATION/POSITION TIME  TEMP    WIND        PRES    WAVE
                       AIR SEA DIR/SP/G            HT/PER
                 (UTC) (F)     (DEG/KT/KT) (MB)    (FT/S)
DEVILS ISLAND    0200   24      40/ 24/ 27 1013.1F
SAXON HARBOR     0140   26      40/ 22/ 34 1010.2F
$$

LMZ867-665-643>646-230300-
LAKE MICHIGAN

STATION/POSITION TIME  TEMP    WIND        PRES    WAVE
                       AIR SEA DIR/SP/G            HT/PER
                 (UTC) (F)     (DEG/KT/KT) (MB)    (FT/S)
NORTHPORT PIER   0140   31      40/  9/ 17 1002.0F
KEWAUNEE LAKESHO 0154   33      10/ 16/ 23   N/A
SHEBOYGAN LAKESH 0200   34     350/ 21/ 25  998.7F
PORT WASHINGTON  0130   36     360/  4/  9  999.3F
MILWAUKEE LAKESH 0200   35      20/ 15/ 19   N/A
KENOSHA   LAKESH 0200   40     350/  3/  5  997.3
$$

TC  - TEMPERATURE IN CELSIUS
VSB - VISIBILITY IN STATUTE MILES
WCI - WIND CHILL INDEX
HX  - HEAT INDEX




USA.gov is the U.S. government's official web portal to all federal, state and local government web resources and services.